Weather in Ikhrek

Russia / Republic of Dagestan     41°41′38″N   47°12′38″E
temp.,
°C
wind,
m/s
gust,
m/s
humid.,
%
clouds,
%
prec.,
mm/h
press.,
hPa
HPBL,
m
3 march, wed
wed300:00−18wnw33680 0.0 102521
03:00−18wnw33580 0.0 102321
06:00−18wnw33600 0.0 102121
09:00−12wsw34660 0.0 1019191
12:00−8sw615670 0.0 10171347
15:00−9sw516710 0.0 10161392
18:00−16sw339116 0.0 101823
21:00−14sw349957 0.6 1021116
4 march, thu
thu400:00−17w229999 0.2 102320
03:00−19nw1210099 0.3 102520
06:00−19nw239680 0.0 102720
09:00−13wsw228240 0.0 1028178
12:00−10sw34720 0.0 1027472
15:00−10wsw34750 0.0 1025422
18:00−17wnw22890 0.0 102620
21:00−17nw33610 0.0 102620
5 march, fri
fri500:00−16w224440 0.0 102420
03:00−14w223341 0.0 102221
06:00−13nw223821 0.0 102121
09:00−7wsw115149 0.0 102076
12:00−4ese015925 0.0 1018457
15:00−4n236214 0.0 1017382
18:00−11n44430 0.0 101925
21:00−12nnw33280 0.0 102121
6 march, sat
sat600:00−13nnw22290 0.0 102121
03:00−12nw23230 0.0 102021
06:00−12nw23370 0.0 102021
09:00−5w22550 0.0 101987
12:00−3sw336119 0.0 1017357
15:00−4wsw346310 0.0 1014385
18:00−11w33620 0.0 101521
21:00−12w333715 0.0 101421
7 march, sun
sun700:00−12w334310 0.0 101322
03:00−11wsw335855 0.0 101223
06:00−13w226168 0.0 101221
09:00−8wsw237233 0.0 1014166
12:00−5sw497713 0.0 10151131
15:00−6sw4138054 0.2 10171680
18:00−9sw4497100 0.6 1019126
21:00−11sw3499100 1.6 1022108